User: anonymous   Login
Location: Peebles
(55.6412°N, 3.1714°W)
Time: 03:36:17
(UTC+01:00)
Language:

deb Agena D - Orbit

View from above orbital plane
View from above orbital plane
View from above satellite
View from above satellite

Ground track
Ground track

The orbit data is extracted from the following two-line orbital elements,

1 04611U 70025P   22181.58967799  .00000352  00000-0  24766-3 0  9998
2 04611  99.8384  51.4343 0128769  58.0631 303.2979 14.01464904652774
Epoch (UTC): 30 June 2022 14:09:08
Eccentricity: 0.0128769
inclination: 99.8384°
perigee height: 795 km
apogee height: 982 km
right ascension of ascending node: 51.4343°
argument of perigee: 58.0631°
revolutions per day: 14.01464904
mean anomaly at epoch: 303.2979°
orbit number at epoch: 65277

The dashed part of the orbit path shows where the satellite is in the earth's shadow,  

DLR